This is the latest recevied weather packets stored in our database for station/object IZ1UQG-N2. If no packets are shown the sender has not sent any weather packets the latest 10 day(s).
| Time | Temp. | Humidity | Pressure | Rain* | Wind** | Luminosity | Snow |
|---|---|---|---|---|---|---|---|
| 1777298020 | 24.44° C | 44% | 1013 hPa | 0 mm | - | 624 W/m² | - |
| 1777297968 | 25° C | 44% | 1013.1 hPa | 0 mm | - | 626 W/m² | - |
| 1777297908 | 25° C | 45% | 1013.1 hPa | 0 mm | - | 631 W/m² | - |
| 1777297849 | 24.44° C | 46% | 1013.1 hPa | 0 mm | - | 640 W/m² | - |
| 1777297841 | 24.44° C | 46% | 1013.1 hPa | 0 mm | - | 640 W/m² | - |
| 1777297789 | 24.44° C | 46% | 1013.2 hPa | 0 mm | - | 640 W/m² | - |
| 1777297728 | 24.44° C | 46% | 1013.2 hPa | 0 mm | - | 649 W/m² | - |
| 1777297668 | 24.44° C | 45% | 1013 hPa | 0 mm | - | 650 W/m² | - |
| 1777297660 | 24.44° C | 45% | 1013 hPa | 0 mm | - | 650 W/m² | - |
| 1777297609 | 24.44° C | 45% | 1013.2 hPa | 0 mm | - | 654 W/m² | - |
| 1777297549 | 24.44° C | 45% | 1013.2 hPa | 0 mm | - | 652 W/m² | - |
| 1777297488 | 24.44° C | 45% | 1013.2 hPa | 0 mm | - | 652 W/m² | - |
| 1777297480 | 24.44° C | 45% | 1013.2 hPa | 0 mm | - | 652 W/m² | - |
| 1777297428 | 24.44° C | 44% | 1013.2 hPa | 0 mm | - | 654 W/m² | - |
| 1777297369 | 24.44° C | 44% | 1013.3 hPa | 0 mm | - | 656 W/m² | - |
| 1777297309 | 24.44° C | 44% | 1013.3 hPa | 0 mm | - | 657 W/m² | - |
| 1777297301 | 24.44° C | 44% | 1013.3 hPa | 0 mm | - | 657 W/m² | - |
| 1777297248 | 24.44° C | 43% | 1013.3 hPa | 0 mm | - | 654 W/m² | - |
| 1777297188 | 24.44° C | 43% | 1013.2 hPa | 0 mm | - | 659 W/m² | - |
| 1777297129 | 24.44° C | 43% | 1013.3 hPa | 0 mm | - | 661 W/m² | - |
| 1777297121 | 24.44° C | 43% | 1013.3 hPa | 0 mm | - | 661 W/m² | - |
| 1777297069 | 25° C | 44% | 1013.5 hPa | 0 mm | - | 663 W/m² | - |
| 1777297009 | 24.44° C | 44% | 1013.5 hPa | 0 mm | - | 672 W/m² | - |
| 1777296949 | 24.44° C | 45% | 1013.3 hPa | 0 mm | - | 673 W/m² | - |
| 1777296940 | 24.44° C | 45% | 1013.3 hPa | 0 mm | - | 673 W/m² | - |
* Rain latest hour (hover to see other rain measurements)
** Current wind speed in m/s (hover to see current wind gust speed)